This demonstration page uses our WeatherBlox Daily Observations layout. Learn more.

Left ArrowRight Arrow

Hourly Observations for December 5, 2022

Temp ( °F °C ) Dew Point ( °F °C ) Humidity (%) Winds ( mph kmh ) Pressure ( in mb ) Visibility ( mi km ) Precip ( " mm )
12:53 am 00:53 Clear 18 -7.8 14 -10 84 84 Calm 30.16 1021 10 16 0.00 0.00
1:53 am 01:53 Clear 18 -7.8 14 -10 84 84 Calm 30.15 1021 10 16 0.00 0.00
2:53 am 02:53 Clear 18 -7.8 15 -9.4 88 88 Calm 30.14 1021 10 16 0.00 0.00
3:53 am 03:53 Clear 18 -7.8 14 -10 84 84 Calm 30.13 1020 10 16 0.00 0.00
4:53 am 04:53 Clear 19 -7.2 17 -8.3 92 92 Calm 30.11 1020 10 16 0.00 0.00
5:53 am 05:53 Clear 23 -5 19 -7.2 84 84 E 3 6 30.11 1020 10 16 0.00 0.00
6:53 am 06:53 Clear 22 -5.6 19 -7.2 88 88 Calm 30.11 1020 10 16 0.00 0.00
7:53 am 07:53 Sunny 23 -5 20 -6.7 88 88 Calm 30.09 1019 10 16 0.00 0.00
8:53 am 08:53 Sunny 29 -1.7 24 -4.4 82 82 ESE 3 6 30.09 1019 10 16 0.00 0.00
9:53 am 09:53 Mostly Sunny 33 0.6 26 -3.3 75 75 SE 3 6 30.11 1020 10 16 0.00 0.00
10:53 am 10:53 Mostly Cloudy 37 2.8 27 -2.8 67 67 ESE 5 7 30.10 1019 10 16 0.00 0.00
11:53 am 11:53 Sunny 43 6.1 28 -2.2 55 55 VRB 6 9 30.05 1018 10 16 0.00 0.00
12:53 pm 12:53 Cloudy 45 7.2 27 -2.8 49 49 Calm 30.02 1017 10 16 0.00 0.00
1:53 pm 13:53 Cloudy 46 7.8 25 -3.9 43 43 ESE 5 7 29.99 1016 10 16 0.00 0.00
2:53 pm 14:53 Cloudy 47 8.3 26 -3.3 44 44 VRB 5 7 29.98 1015 10 16 0.00 0.00
3:53 pm 15:53 Cloudy 47 8.3 27 -2.8 45 45 VRB 3 6 29.98 1015 10 16 0.00 0.00
4:53 pm 16:53 Cloudy 47 8.3 28 -2.2 47 47 SSE 5 7 29.98 1015 10 16 0.00 0.00
5:53 pm 17:53 Cloudy 46 7.8 29 -1.7 51 51 VRB 5 7 29.98 1015 10 16 0.00 0.00
6:02 pm 18:02 Cloudy 46 7.8 29 -1.7 51 51 VRB 3 6 29.98 1015 10 16 0.00 0.00
6:36 pm 18:36 Cloudy 46 7.8 31 -0.6 55 55 SSE 5 7 29.97 1015 10 16 0.00 0.00
6:50 pm 18:50 Cloudy 46 8 30 -1 53 53 VRB 5 7 29.97 1015 10 16 0.00 0.00
6:53 pm 18:53 Cloudy 46 7.8 30 -1.1 53 53 VRB 6 9 29.98 1015 10 16 0.00 0.00
7:53 pm 19:53 Cloudy 44 6.7 37 2.8 76 76 VRB 3 6 29.97 1015 10 16 0.00 0.00
8:12 pm 20:12 Cloudy 44 6.7 38 3.3 79 79 Calm 29.98 1015 10 16 0.00 0.00
8:45 pm 20:45 Cloudy 44 6.7 39 3.9 82 82 VRB 5 7 29.98 1015 10 16 0.00 0.00
8:53 pm 20:53 Cloudy 44 6.7 40 4.4 85 85 SE 3 6 29.97 1015 10 16 0.00 0.00
9:53 pm 21:53 Cloudy 44 6.7 40 4.4 85 85 VRB 3 6 29.98 1015 10 16 0.00 0.00
10:31 pm 22:31 Cloudy with Mist and Fog 44 6.7 42 5.6 93 93 Calm 29.99 1015 2 3 0.00 0.00
10:40 pm 22:40 Cloudy with Mist and Fog 44 6.7 42 5.6 93 93 Calm 29.98 1015 6 10 0.00 0.00
10:53 pm 22:53 Cloudy 44 6.7 42 5.6 93 93 Calm 29.97 1015 7 11 0.00 0.00
11:13 pm 23:13 Cloudy with Mist and Fog 44 6.7 42 5.6 93 93 Calm 29.99 1015 4 6 0.00 0.00
11:43 pm 23:43 Cloudy with Mist and Fog 44 6.7 42 5.6 93 93 Calm 29.99 1015 2 3 0.00 0.00
11:53 pm 23:53 Cloudy with Mist and Fog 44 6.7 42 5.6 93 93 Calm 29.98 1015 2 3 0.00 0.00

Powered by AerisWeather